GFSGBSN_250_rhum_000.txt.gz
RH
27 26 26 22 19 18 17 17 16 16 15 16 15 14 13 13 13 14 16 14 4 0 0 1 5 6 10 15 19 27 35 41 38 40 40 53 59 57 56 56 52 55 55 38 34 35 29
30 30 29 22 19 20 24 23 20 19 17 17 19 15 17 15 16 18 10 4 2 5 10 22 27 25 20 27 31 28 33 33 36 38 35 41 39 39 38 39 37 34 31 25 21 18 11
35 35 31 23 22 30 33 30 25 34 34 35 24 24 22 26 30 31 21 31 48 59 56 48 32 28 52 78 72 64 53 37 24 23 23 22 23 22 22 20 22 26 18 14 9 9 14
36 44 40 43 38 54 42 44 68 50 39 35 40 48 51 64 67 61 66 62 68 83 88 82 89 91 78 63 47 35 26 19 15 13 13 12 11 12 12 10 10 10 11 10 15 17 24
51 53 52 78 71 83 70 97 100 95 89 81 85 90 93 90 88 94 99 100 100 100 97 85 62 39 24 19 15 14 13 12 14 13 12 12 12 11 11 12 13 14 14 18 20 28 29
80 74 90 98 100 99 100 100 100 100 100 100 100 100 100 100 100 100 100 94 84 68 52 33 23 19 16 16 15 15 15 15 13 12 12 13 12 12 13 13 16 17 18 22 26 32 33
88 98 88 100 100 100 100 92 100 100 100 100 100 100 100 100 98 92 70 57 51 30 20 21 20 20 19 19 21 20 17 15 14 15 14 14 14 13 13 14 17 20 22 23 27 32 34
80 100 87 100 100 100 99 100 100 100 100 100 100 100 100 99 88 70 58 48 34 26 25 22 23 21 19 20 22 23 20 18 15 17 18 18 17 16 15 15 17 22 21 21 23 23 23
100 94 91 100 100 100 100 100 100 100 100 99 100 95 86 75 68 57 44 44 37 29 29 30 25 22 22 25 26 29 27 22 17 16 18 18 18 19 16 16 18 19 20 22 25 26 24
100 99 98 100 100 100 100 100 100 100 88 93 95 90 94 82 59 51 49 42 34 26 23 28 27 27 27 28 26 27 32 37 26 19 20 21 20 20 17 16 17 21 23 22 21 24 26
100 99 80 100 100 100 96 99 96 92 93 88 85 100 65 63 67 62 61 41 30 26 32 35 22 24 27 26 26 27 27 34 51 38 26 22 21 21 18 20 19 20 21 20 20 19 21
76 81 87 99 100 100 99 84 81 90 91 79 98 76 62 78 75 68 49 34 29 34 43 27 26 28 31 31 30 30 35 36 41 57 60 39 23 21 19 20 21 20 19 20 21 23 24
100 81 100 100 100 94 100 100 92 97 83 84 78 67 53 64 59 41 34 34 32 47 31 29 32 34 39 44 46 34 31 30 35 34 43 69 47 21 21 21 24 24 24 27 25 24 22
100 93 100 100 100 100 100 100 77 97 87 75 76 80 59 52 45 38 37 35 37 45 45 44 45 49 50 54 59 48 41 24 29 36 32 39 54 31 20 22 24 21 23 21 19 23 26
89 98 100 100 100 100 99 100 80 86 93 61 78 66 74 56 48 40 41 38 38 41 54 62 60 65 74 52 51 55 45 35 26 20 30 34 43 30 24 19 19 22 26 26 25 30 34
83 100 100 100 100 100 100 100 68 96 83 70 67 70 61 51 48 45 41 37 37 46 56 57 65 68 73 63 62 44 32 40 29 19 19 24 29 28 18 15 15 17 19 21 24 26 25
100 92 100 100 100 100 100 100 86 99 90 75 88 74 57 46 44 44 42 43 46 52 64 68 63 68 85 72 58 46 39 38 29 17 19 20 22 23 17 14 15 16 17 17 17 18 18
96 94 100 96 100 100 96 91 99 87 75 78 83 64 50 48 49 49 53 55 57 73 65 74 81 92 88 76 54 39 29 23 26 22 21 16 17 20 18 16 16 16 17 18 18 19 27
100 96 100 100 100 100 100 100 92 100 80 90 76 57 50 50 55 53 71 73 92 94 86 77 88 95 87 87 82 60 42 36 33 32 29 27 27 29 29 25 23 24 26 30 36 44 54
100 100 100 100 100 100 98 99 100 98 88 92 80 65 51 50 52 61 74 72 77 84 82 74 68 70 73 67 61 66 72 66 56 48 43 39 30 33 36 38 42 52 45 51 56 56 47
92 100 91 100 100 100 100 100 100 100 91 94 94 72 60 54 52 53 59 66 70 72 72 64 59 61 60 55 54 56 56 60 59 56 54 53 51 45 39 38 66 90 59 50 45 46 38
60 88 99 95 100 100 100 100 100 100 100 91 99 84 64 70 69 67 58 54 57 60 59 59 63 65 55 54 50 53 60 63 58 56 55 49 47 48 68 52 55 83 57 46 48 44 41
50 53 71 95 92 93 95 100 100 100 100 100 100 98 76 70 62 60 63 62 60 55 53 49 46 45 46 44 41 44 48 64 66 57 56 47 41 57 79 95 89 97 72 45 46 49 54
52 64 75 84 95 100 100 100 100 100 99 100 100 96 78 73 59 56 60 65 60 59 58 53 50 46 44 42 38 39 40 52 59 58 56 54 50 49 47 46 46 89 64 47 53 65 72
78 55 90 100 100 100 100 100 100 100 100 100 100 98 87 70 60 65 65 68 68 62 59 63 62 64 60 53 40 32 34 61 60 69 65 53 56 52 54 46 43 78 53 49 57 75 76
100 75 82 96 100 100 100 100 100 100 100 95 99 94 89 88 67 67 73 73 73 71 68 65 59 51 47 47 42 36 67 61 58 65 70 79 66 57 48 42 40 73 40 44 64 72 55
100 100 79 98 100 100 100 100 100 100 100 100 95 93 81 80 85 83 79 78 72 64 64 65 71 69 60 47 35 49 75 74 73 64 64 65 63 63 54 51 63 58 62 79 81 51 49
100 100 98 77 98 100 99 99 100 100 100 100 87 86 92 88 84 82 78 73 77 80 82 96 76 55 44 51 64 74 62 71 84 82 72 64 66 70 59 60 76 77 77 80 63 62 70
100 100 100 97 74 85 95 95 100 100 100 100 100 97 90 86 90 81 68 61 65 70 72 60 71 80 65 69 65 60 56 61 62 69 82 87 90 65 56 68 86 70 75 72 80 73 74

GFSGBSN_250_rhum_006.txt.gz
RH
87 68 76 38 18 24 17 16 14 13 12 11 10 10 10 11 12 12 11 11 10 9 9 10 11 12 15 16 20 20 20 19 21 21 21 22 35 62 91 98 100 99 100 92 60 84 86
72 82 58 21 25 23 16 17 15 14 13 12 11 11 12 12 13 12 12 12 10 9 9 9 9 9 9 14 16 18 21 20 21 24 24 18 17 19 27 44 55 66 71 86 86 82 91
100 86 26 25 31 21 19 17 18 16 13 13 13 14 14 13 13 13 13 11 10 9 12 12 14 10 4 3 8 11 15 19 22 21 19 20 21 26 26 26 27 41 49 56 71 57 56
91 48 27 33 28 21 26 22 24 26 22 22 21 17 12 12 11 9 10 11 11 9 8 7 5 2 2 6 10 19 28 32 37 44 45 40 37 34 32 31 27 27 28 26 31 29 28
69 26 36 36 27 30 32 44 38 43 35 42 25 19 15 16 14 13 9 11 11 10 12 14 18 31 60 61 69 68 68 62 52 47 41 36 31 24 18 18 17 15 15 14 12 11 11
60 31 48 37 37 42 53 72 60 68 81 34 27 28 27 26 24 28 37 41 49 59 72 72 75 74 74 69 59 51 44 32 27 22 16 15 15 14 13 13 13 12 12 11 11 12 12
40 41 68 46 52 67 77 82 100 90 59 39 46 43 40 38 49 79 85 93 99 99 100 82 76 50 38 25 22 21 17 15 14 14 14 14 14 14 14 13 13 13 12 12 14 16 22
40 57 71 64 72 75 95 100 100 81 58 56 62 61 53 66 83 93 99 100 97 72 49 36 29 28 25 22 20 20 18 18 17 16 16 15 15 16 15 14 13 14 15 17 19 24 29
52 76 91 81 87 100 100 100 100 73 74 81 80 92 95 98 100 99 94 89 65 43 33 27 24 23 23 21 20 20 20 21 19 17 16 17 17 18 18 17 16 16 18 19 19 23 24
71 97 97 83 93 100 100 100 100 99 99 100 100 100 100 100 93 77 56 46 39 38 32 24 22 22 21 20 20 21 22 23 25 30 26 17 18 18 18 18 17 16 16 16 16 17 16
98 99 100 90 100 100 100 100 100 100 100 100 100 100 94 77 60 50 41 39 37 34 35 34 25 24 23 25 25 24 25 26 27 25 24 36 34 21 20 19 19 18 17 19 19 19 17
97 100 100 97 100 100 100 100 100 100 100 100 100 92 66 58 54 52 46 42 38 37 41 35 24 24 28 31 33 38 44 46 42 40 37 32 30 34 33 26 22 21 20 18 18 19 20
91 100 100 100 100 100 100 100 100 100 100 100 90 78 75 61 59 59 48 40 35 32 37 25 29 31 33 35 36 39 39 39 27 27 25 25 32 35 34 34 43 24 20 17 17 18 20
89 100 100 100 100 99 100 100 100 100 100 98 91 78 68 69 50 58 46 37 36 40 39 33 35 34 39 41 43 41 30 24 24 26 22 21 20 21 35 33 32 34 36 19 18 17 17
89 96 100 100 100 100 100 100 100 99 100 94 74 58 57 64 57 66 39 39 40 41 46 42 41 42 44 43 49 44 38 34 35 32 21 19 20 20 22 26 30 30 35 26 19 18 17
97 95 94 100 100 100 100 96 94 100 100 92 82 62 67 78 72 56 37 43 42 42 42 45 42 42 51 57 62 48 35 38 40 41 36 34 34 25 21 21 23 27 29 27 21 15 15
89 96 98 97 100 100 100 100 91 88 100 89 81 63 58 72 55 44 40 41 46 42 41 45 44 47 61 65 64 51 41 46 46 53 47 45 50 45 47 30 22 20 20 20 19 18 19
100 90 97 93 100 100 100 100 95 84 79 80 82 83 59 62 57 52 48 48 50 47 47 48 52 58 72 73 70 70 62 53 43 42 46 43 45 44 44 44 37 30 31 32 33 40 38
88 85 91 82 100 100 100 100 100 88 83 80 76 77 77 80 72 54 51 51 50 45 49 65 71 78 84 87 82 72 63 54 48 43 42 42 42 45 46 46 41 38 38 39 42 46 56
93 95 93 80 85 97 100 98 100 100 91 87 80 74 77 75 75 55 49 49 50 51 56 71 93 96 90 84 73 62 59 58 54 48 44 42 40 41 44 50 48 41 35 36 37 44 47
97 94 89 89 100 99 100 100 100 100 100 96 98 88 92 85 82 74 59 54 53 70 85 79 82 83 77 75 71 69 63 59 58 49 40 37 36 36 36 45 54 43 36 38 47 47 42
95 92 89 93 92 100 100 92 100 100 100 100 91 79 88 94 97 86 69 60 62 77 84 81 72 68 67 66 66 63 59 56 49 42 38 36 41 41 31 33 50 54 44 42 37 34 37
96 88 91 84 83 95 96 97 100 100 100 100 99 98 77 95 99 95 70 63 66 72 74 69 61 55 56 58 60 61 58 54 52 50 53 47 41 36 37 33 54 50 56 56 52 49 48
85 96 100 91 75 92 100 100 100 100 100 100 99 100 100 98 97 99 79 66 65 62 62 57 57 62 65 62 62 64 65 65 66 64 55 43 40 36 30 33 54 44 47 48 55 48 48
100 92 99 94 79 67 96 100 100 100 100 100 100 100 100 100 99 93 96 79 64 61 63 70 70 66 62 58 59 71 74 74 74 76 59 48 39 31 31 42 54 39 37 42 42 48 53
100 100 97 100 94 98 93 83 100 100 100 100 100 100 100 100 100 100 88 86 90 79 68 68 72 73 70 62 58 65 77 81 75 75 67 54 45 41 35 36 42 34 37 52 50 52 60
100 100 100 93 100 98 94 85 78 91 100 100 100 100 100 100 95 100 100 100 81 88 98 95 82 75 69 69 67 65 79 83 82 76 60 65 53 46 40 37 42 34 43 51 53 57 60
92 100 100 100 97 100 98 94 92 79 79 90 100 100 100 100 99 94 100 100 100 100 86 85 89 83 74 78 76 71 84 86 78 78 81 71 53 50 46 48 45 50 48 51 59 72 83
100 82 100 100 100 100 100 99 99 98 82 74 93 100 100 100 94 93 87 94 100 100 94 87 82 78 75 68 66 83 84 76 76 88 100 88 68 56 42 67 50 51 55 66 74 73 71

GFSGBSN_250_rhum_009.txt.gz
RH
82 100 100 96 77 71 38 18 16 14 14 14 12 11 11 10 10 10 10 10 10 9 9 9 8 12 17 24 30 37 39 41 40 31 22 23 24 26 40 68 100 100 100 100 100 99 100
100 100 100 81 84 56 20 19 15 16 14 13 11 11 11 10 11 11 11 11 11 10 10 10 10 11 14 18 21 32 34 32 33 36 34 26 27 32 40 43 76 95 98 100 100 98 97
100 100 94 100 77 26 24 17 16 16 14 13 12 12 12 12 12 12 12 12 11 11 10 9 9 9 9 12 16 17 16 18 21 22 23 24 25 24 24 24 20 29 33 34 49 54 54
93 95 100 96 38 31 24 19 19 18 16 14 15 14 15 14 13 13 13 12 11 9 9 9 9 9 11 12 11 12 12 14 16 18 18 19 20 22 23 25 29 40 43 35 30 34 45
95 100 98 53 34 31 25 26 26 22 20 18 16 15 15 14 14 13 11 10 10 11 12 11 14 12 10 8 6 10 14 17 21 24 40 45 42 44 49 53 56 46 43 40 34 28 25
100 100 72 34 37 28 29 31 30 31 38 33 22 15 12 12 12 14 12 14 12 13 14 14 16 18 32 28 30 38 40 52 54 53 56 65 58 51 46 42 38 31 21 14 13 13 12
100 100 46 36 31 38 47 44 53 55 53 39 33 34 28 28 27 23 23 14 17 36 36 45 50 52 70 73 72 78 73 74 65 56 46 36 21 19 17 17 14 13 12 12 12 12 13
100 81 49 39 45 61 81 99 100 82 74 51 45 37 32 40 42 43 50 81 82 84 85 91 84 65 46 36 31 25 22 19 16 14 14 15 15 15 15 15 14 14 13 13 14 19 24
100 60 53 56 60 71 86 100 100 93 74 65 53 51 52 77 82 89 95 99 86 73 56 42 28 26 24 22 20 20 18 17 17 17 16 16 16 16 16 16 16 15 15 15 17 24 27
100 53 51 68 97 84 100 100 99 93 76 76 64 58 74 87 94 98 100 81 52 40 30 28 25 25 26 25 25 23 22 22 20 19 17 17 18 18 18 18 17 16 16 16 18 22 26
69 68 64 91 100 100 100 100 99 92 100 90 74 83 97 100 100 99 83 57 40 32 28 29 30 28 27 25 24 24 25 25 25 25 23 23 20 17 18 18 18 18 17 18 18 19 19
54 89 90 93 90 99 100 100 100 100 100 99 100 100 100 100 94 80 58 45 40 38 37 32 32 23 22 23 24 28 27 26 27 24 23 26 29 32 37 30 21 19 20 20 19 17 15
60 97 96 92 97 100 100 100 100 100 100 100 100 100 100 85 63 53 48 38 36 39 43 31 25 25 26 30 33 38 40 44 44 33 28 26 20 20 23 31 39 44 38 25 20 18 15
80 98 98 93 87 100 100 100 100 100 100 100 100 80 86 72 64 57 41 37 37 45 35 28 32 34 36 37 40 43 36 34 31 30 23 21 20 21 21 20 31 33 33 41 47 23 17
98 99 95 99 100 100 100 100 100 100 100 100 95 78 70 67 66 55 48 36 35 46 32 36 41 39 42 45 47 44 35 32 32 32 27 28 24 24 21 20 22 24 28 31 30 37 29
99 100 95 100 100 100 100 100 100 100 100 99 94 79 87 72 63 60 43 38 37 41 44 44 46 46 51 59 62 48 39 41 50 51 53 49 55 59 52 34 26 22 22 23 24 27 27
97 100 95 100 100 100 100 100 100 100 100 100 100 96 74 68 59 70 40 38 40 42 46 47 51 51 66 70 80 68 57 59 56 61 59 60 60 56 53 50 42 37 34 32 31 30 26
100 97 93 97 100 100 100 100 100 100 100 100 89 64 54 70 69 74 42 39 44 45 44 44 50 53 66 74 78 77 83 66 60 56 54 50 46 41 43 48 46 44 46 47 48 49 48
99 99 90 85 100 100 100 100 100 100 100 100 98 77 58 71 71 58 43 42 45 52 48 46 53 63 64 75 76 78 73 68 63 55 50 46 40 38 36 36 36 37 49 51 53 52 50
95 100 100 86 92 100 100 100 100 100 92 100 94 94 64 58 72 60 52 51 52 54 56 54 61 71 73 78 70 72 68 61 58 57 52 44 36 33 32 31 30 29 31 42 53 50 56
98 100 97 92 87 100 100 100 100 100 80 77 94 95 81 82 76 66 63 52 52 54 59 64 72 74 80 69 63 65 63 60 58 56 51 46 41 41 44 45 37 29 28 28 33 42 48
99 100 98 90 82 100 100 100 100 100 88 73 78 89 75 73 72 73 77 64 58 62 74 71 81 78 68 64 65 62 57 57 54 53 51 49 52 59 58 50 47 36 31 31 35 46 46
100 100 100 100 96 92 100 100 100 100 100 85 78 72 74 74 72 74 79 83 76 71 77 73 68 70 71 68 62 57 58 59 59 58 56 58 60 65 74 69 58 39 35 40 46 43 42
100 98 100 100 100 98 84 98 100 100 100 95 93 79 88 83 68 67 72 90 91 82 73 68 64 67 70 70 58 61 67 62 59 61 65 67 67 66 66 68 61 58 63 58 61 48 41
100 94 100 100 99 94 87 92 93 100 100 100 100 97 100 97 73 67 71 80 92 87 67 60 63 65 67 62 70 72 67 64 63 60 59 59 61 60 62 63 55 60 54 49 49 44 50
100 100 98 99 100 100 100 100 100 100 100 100 100 100 85 97 95 91 100 94 80 80 80 80 70 68 68 68 69 70 69 71 74 71 66 62 59 57 59 50 59 60 67 61 45 47 53
100 100 100 97 96 100 100 98 99 100 100 100 100 100 100 100 100 100 100 99 100 96 87 82 92 92 89 85 82 80 80 79 78 75 76 63 61 64 55 54 61 53 52 51 52 57 55
100 100 100 97 89 94 88 83 94 100 100 100 100 100 100 97 95 100 100 84 73 74 98 100 100 100 100 98 90 80 78 79 79 76 69 67 66 63 63 72 50 56 51 54 45 42 44
100 100 100 100 97 97 91 88 82 76 92 100 100 100 100 100 100 100 100 100 100 75 83 91 98 97 100 100 100 83 74 82 83 80 85 82 73 72 52 81 61 47 45 42 44 50 54

GFSGBSN_250_rhum_012.txt.gz
RH
74 61 86 100 100 100 100 80 57 27 17 14 13 14 13 12 11 11 10 11 11 11 11 11 11 10 10 11 11 16 28 44 56 57 52 39 30 76 100 83 81 94 100 100 100 100 100
61 63 92 100 100 100 88 76 37 20 15 14 14 15 12 11 10 10 10 10 10 11 11 10 10 10 9 11 12 23 32 39 47 50 50 51 45 37 75 82 49 50 62 82 100 100 100
66 95 100 100 100 100 95 59 21 17 15 15 14 13 11 11 11 12 11 11 11 11 10 10 10 10 9 6 6 11 19 24 32 45 55 51 45 38 32 35 33 32 59 96 81 93 89
70 100 100 100 100 100 80 29 20 17 14 14 14 12 11 11 11 12 12 12 11 11 11 10 10 9 8 9 12 12 14 23 34 37 40 37 33 31 36 33 27 22 19 20 21 24 26
93 100 98 100 100 97 41 28 20 20 16 15 14 13 12 12 13 13 13 12 12 11 10 10 9 9 9 9 10 11 14 17 17 18 19 18 18 22 20 21 20 19 20 21 25 30 37
100 92 100 100 100 72 36 28 32 27 24 18 15 15 16 15 14 13 12 12 10 10 10 12 12 13 12 13 13 12 13 13 11 10 11 16 18 19 25 34 42 46 53 55 58 54 47
95 92 100 100 100 38 32 43 32 27 25 22 21 20 16 15 14 13 12 10 12 15 16 22 14 23 16 11 10 8 11 11 11 15 26 33 52 71 69 65 52 55 57 53 37 34 22
99 100 100 100 67 36 38 55 34 35 39 50 31 23 20 18 21 28 34 46 29 29 27 35 42 26 44 41 37 50 53 58 68 71 74 72 72 66 59 51 38 27 22 14 13 14 16
97 100 100 99 44 37 55 57 53 54 58 47 41 40 34 34 44 46 50 56 55 44 61 56 67 67 70 65 62 71 61 59 40 25 20 15 16 14 14 14 14 14 14 14 14 15 16
100 100 100 70 52 40 85 82 87 80 65 49 46 41 44 49 60 70 85 85 80 76 66 49 40 32 25 20 19 19 18 17 17 17 17 17 16 16 16 16 16 16 15 14 14 15 16
100 100 100 56 61 71 98 100 100 82 57 53 54 69 70 75 86 93 95 71 50 36 30 29 27 26 23 22 22 22 23 24 24 24 22 21 19 18 18 18 17 18 17 16 16 17 17
100 100 85 66 89 83 99 100 100 92 74 65 62 75 78 82 82 91 73 48 36 41 30 30 30 30 26 25 25 26 25 25 29 31 28 26 26 29 31 27 22 21 20 19 19 18 19
100 100 56 77 80 91 100 100 96 100 94 71 69 84 84 99 98 80 56 38 33 32 30 32 30 28 27 29 31 36 37 40 36 30 23 24 24 21 20 20 24 28 31 31 30 30 22
100 94 75 96 74 98 100 100 92 100 96 81 86 89 100 98 93 71 51 49 46 44 34 32 29 28 31 35 41 47 49 36 27 25 19 18 18 19 21 20 19 22 27 31 32 34 35
100 69 92 100 81 100 100 100 100 98 100 96 95 100 100 93 67 54 52 44 45 54 47 36 34 35 39 45 50 48 42 35 33 30 40 44 47 51 51 44 36 29 30 27 26 26 32
100 70 100 100 85 100 100 100 100 99 100 100 100 100 98 86 72 54 41 42 48 58 36 39 44 47 49 50 55 51 46 54 60 57 60 61 61 61 54 49 51 52 48 52 48 59 54
100 75 100 93 86 96 100 100 100 100 100 100 100 100 97 84 76 55 45 39 42 58 45 49 50 50 56 59 65 60 67 65 62 62 62 56 50 47 44 43 47 57 63 67 62 62 55
100 91 100 96 90 99 100 100 100 100 100 100 100 91 82 77 80 69 48 39 44 48 47 48 54 58 64 76 83 78 85 67 61 58 55 54 50 45 40 37 36 36 37 37 40 51 60
100 97 100 95 91 98 100 100 100 100 100 100 91 93 85 84 81 74 50 38 46 43 43 44 52 59 67 77 89 94 83 73 70 68 63 57 51 43 38 38 42 48 53 48 44 38 37
100 96 100 94 97 100 100 100 100 100 100 100 100 92 89 72 78 75 68 43 42 46 47 50 56 59 73 81 83 92 82 76 72 69 63 58 53 44 40 40 44 49 50 43 41 43 43
100 100 99 90 100 100 100 100 100 100 100 99 97 91 74 56 73 74 69 47 43 46 51 56 57 74 80 88 91 89 77 71 67 61 57 54 52 49 51 53 55 53 56 51 46 40 40
100 100 99 91 100 100 100 100 100 100 100 98 100 100 88 66 62 73 67 55 52 51 53 53 55 68 72 84 94 83 68 62 57 54 54 59 62 64 61 60 66 68 64 67 58 46 39
100 100 96 93 92 98 100 100 100 100 100 94 99 85 82 62 58 61 69 69 60 55 52 51 56 59 84 82 76 77 71 63 57 57 61 60 59 58 58 57 55 64 70 70 62 48 44
100 100 99 96 91 93 99 100 100 100 100 100 84 77 88 81 65 72 74 69 69 69 67 61 60 76 71 79 80 81 73 65 56 63 66 62 62 65 66 67 70 62 64 63 57 54 56
100 100 100 93 96 92 91 99 100 100 100 100 100 81 75 70 57 60 61 63 70 66 67 86 76 63 64 65 73 66 58 56 58 65 65 61 61 62 62 70 73 64 77 69 59 60 58
100 100 100 100 87 97 98 91 100 100 100 100 100 100 84 63 64 58 51 60 43 51 72 67 77 72 71 69 63 61 60 63 69 73 75 75 74 71 67 63 63 61 60 59 56 59 58
100 100 100 100 99 94 100 99 96 100 100 100 100 100 100 93 82 75 79 77 68 75 86 82 77 78 78 79 78 87 94 100 99 94 96 68 48 47 64 68 63 67 66 62 51 50 50
100 100 100 100 97 97 96 98 98 86 95 100 100 100 100 100 100 86 80 93 90 84 78 78 63 69 75 75 86 90 80 84 76 70 71 57 52 52 47 57 58 60 55 54 56 46 45
100 100 100 100 100 100 99 99 93 93 96 98 84 94 100 100 100 100 100 100 99 72 100 100 98 100 82 73 61 64 63 58 61 61 66 69 73 62 54 56 51 52 40 44 40 46 50

GFSGBSN_250_rhum_015.txt.gz
RH
27 22 20 20 34 50 80 100 100 99 68 57 32 18 15 12 11 11 12 11 12 12 15 17 24 33 38 37 29 30 39 44 46 57 64 73 65 80 99 76 100 100 100 100 100 100 100
27 26 22 32 56 73 98 100 91 72 72 37 20 14 12 12 13 13 12 12 12 14 15 16 16 22 27 25 23 25 26 25 27 35 42 61 62 65 56 46 100 100 100 100 100 100 100
31 30 21 55 69 73 99 83 92 90 45 21 16 14 13 14 14 12 11 10 10 11 11 11 11 13 15 13 12 10 10 12 11 13 29 54 68 69 68 54 54 94 100 100 100 98 91
38 28 26 60 81 86 91 92 98 50 25 16 14 14 15 14 12 11 11 11 11 11 11 11 11 10 10 10 10 9 6 10 17 23 38 54 63 64 62 59 50 51 69 100 100 100 100
38 26 37 86 99 80 99 100 79 34 18 14 14 14 13 12 11 12 12 11 12 11 11 11 11 10 11 10 8 7 7 8 18 28 32 39 48 48 50 52 48 44 40 49 88 92 65
35 25 71 90 86 97 100 100 55 26 17 16 15 14 12 12 12 12 12 12 12 12 12 11 10 10 9 9 8 8 8 10 13 20 29 38 43 46 46 39 31 25 25 25 24 23 22
32 29 92 86 88 100 100 100 36 28 21 21 18 16 13 13 14 14 13 12 11 11 10 12 10 14 13 9 9 9 10 10 12 17 20 17 16 20 18 16 16 20 28 46 44 43 46
29 49 98 81 96 100 100 67 37 32 27 24 20 19 17 17 18 16 16 14 18 18 14 25 25 12 19 24 20 16 16 15 14 14 16 14 14 19 24 37 49 65 73 52 48 37 35
29 79 94 87 100 100 96 38 45 34 47 41 49 37 20 16 18 18 20 27 28 24 24 28 38 28 39 32 26 24 33 34 39 46 55 69 60 63 61 64 72 62 47 38 20 19 18
42 100 83 94 100 100 58 39 42 64 72 62 67 29 17 20 22 24 26 38 54 42 43 40 42 42 53 68 62 56 71 62 58 55 37 30 24 20 18 17 16 15 15 15 15 15 15
69 100 91 100 100 95 41 42 47 73 68 95 48 39 38 42 57 56 46 53 57 62 65 60 64 57 42 37 26 22 20 19 19 19 18 18 18 17 17 17 17 16 16 17 16 15 15
81 100 98 100 100 65 48 65 73 76 77 71 76 65 62 58 54 67 79 73 64 57 37 32 34 26 22 22 23 24 25 25 26 27 28 26 25 25 24 23 22 21 21 20 20 19 19
100 100 92 100 100 56 65 90 98 90 83 90 67 51 50 59 80 91 66 48 58 54 32 30 30 27 26 26 28 29 32 33 35 39 28 26 26 26 23 21 21 20 20 24 29 38 38
100 98 94 100 90 63 83 100 100 89 95 63 62 62 71 80 82 61 44 38 49 36 34 33 29 26 27 32 36 42 44 37 30 26 24 19 19 21 25 28 28 26 26 25 25 27 27
100 93 99 100 70 73 94 100 100 100 81 64 78 82 84 85 76 52 42 40 41 41 47 36 28 28 32 41 43 44 38 28 27 27 28 36 53 60 62 60 61 62 63 57 60 60 59
100 93 100 100 80 81 99 100 99 100 94 73 88 89 89 89 76 56 52 57 54 50 41 29 31 38 45 50 53 51 41 49 56 60 60 66 61 54 47 45 46 50 53 55 56 51 52
100 96 100 89 92 94 100 100 100 99 95 84 92 90 98 89 65 52 61 52 53 56 37 38 48 52 59 57 66 62 64 67 72 69 64 56 53 51 47 42 40 38 43 46 43 41 41
89 98 100 95 81 91 100 100 100 92 92 92 87 98 99 83 56 52 49 46 51 60 41 49 52 56 64 77 85 86 83 68 62 60 56 55 53 54 47 40 37 38 33 35 39 42 48
94 97 100 100 82 90 100 100 100 100 94 96 97 100 100 84 68 54 44 41 44 54 58 51 53 57 66 81 98 92 86 76 69 64 62 59 58 55 49 40 32 38 57 64 77 83 60
93 100 100 100 87 88 100 100 100 100 99 95 94 100 100 91 78 72 60 40 42 49 52 50 53 56 63 79 85 98 98 88 79 68 61 59 54 50 52 56 60 57 55 54 55 60 67
93 100 99 100 88 96 96 100 100 100 95 100 100 100 100 93 90 70 68 48 40 48 48 48 45 48 66 82 87 92 97 87 80 73 64 58 51 51 57 55 56 55 55 54 53 49 48
91 100 100 99 100 97 98 100 100 100 100 100 100 100 80 93 84 75 68 70 52 42 44 49 49 46 53 82 79 83 90 88 75 68 63 60 59 59 60 59 61 60 59 58 56 58 58
99 100 100 90 98 96 100 100 100 100 100 96 100 100 100 97 81 72 75 72 69 49 43 48 51 53 65 47 50 70 72 70 66 66 62 60 57 63 66 66 65 66 68 61 55 48 56
100 100 100 91 100 91 100 100 100 100 96 100 100 98 100 92 81 65 62 72 69 55 53 54 53 53 50 49 55 57 62 59 56 56 54 53 56 62 69 79 77 60 51 50 58 56 71
100 95 100 95 95 96 100 100 100 100 100 100 84 93 97 98 92 84 65 64 72 64 72 64 61 54 69 73 64 60 58 55 53 56 61 68 84 99 88 68 54 44 58 60 62 67 61
100 97 100 99 89 95 100 100 100 100 100 93 81 100 98 80 81 83 65 59 69 69 72 61 54 55 68 72 66 66 59 59 65 84 100 100 94 59 50 50 49 49 60 68 73 77 60
100 97 100 100 93 88 98 100 100 100 100 100 95 100 100 95 67 61 55 68 65 62 58 52 52 64 66 67 90 90 94 98 90 84 54 53 52 51 49 56 59 55 65 71 72 64 58
100 100 100 100 100 93 97 92 85 98 100 100 100 100 100 100 100 54 58 62 59 55 55 57 50 46 48 43 49 52 50 52 53 68 80 68 61 61 62 55 61 52 56 82 78 60 51
100 100 97 100 100 100 97 95 96 87 93 100 100 100 100 100 100 100 100 96 63 70 85 70 70 99 90 95 100 100 100 100 100 98 87 74 78 71 75 71 63 47 55 64 69 70 56